STARLINK-36382

Last updated on Sun Mar 15 2026 00:02:06 GMT+0000 (Coordinated Universal Time)

1 67807U 26032L 26073.49974219 .00151241 00000+0 99505-3 0 9998 2 67807 97.2838 260.2689 0001183 47.2603 312.8762 15.75235543 5548
UTC large
Height (km)
Speed (km/s)
/
Latitude / Longitude
Inclination (degrees)
Orbital Period (minutes)
Azimuth
Elevation
Range (km)
Doppler Factor

Next 0 passes for location: London (51.5072 / 0.1276)

Sorry there are no passes over London.